Regional Weather Roundup
Issued by NWS

Home | Current Version | Previous Version | Graphics & Text | Print | Product List | Glossary On
Versions: 1 2 3 4 5 6 7 8 9 10 11 12 13 14 15 16 17 18 19 20 21 22 23 24 25 26 27 28 29 30 31 32 33 34 35 36 37 38 39 40 41 42 43 44 45 46 47 48 49 50
000
ASUS43 KLSX 241759
RWRMO

WEATHER SUMMARY FOR MISSOURI
NATIONAL WEATHER SERVICE SPRINGFIELD MO
1200 PM CST SAT JAN 24 2015

NOTE: "FAIR" INDICATES FEW OR NO CLOUDS BELOW 12,000 FEET WITH NO
       SIGNIFICANT WEATHER AND/OR OBSTRUCTIONS TO VISIBILITY.
       CURRENT SKY AND/OR WEATHER CONDITIONS ARE NOT AVAILABLE FOR
       CHILLICOTHE AND FARMINGTON.

MOZ001>031-035>038-043-044-053-054-241900-
...NORTHERN AND WESTERN MISSOURI...

CITY           SKY/WX    TMP DP  RH WIND       PRES   REMARKS
KANSAS CTY INT MOSUNNY   50  32  50 W13       29.89F
6HR MIN TEMP:  27; 6HR MAX TEMP:  50;

KANSAS C DTWN  SUNNY     48  30  49 W9        29.91F
6HR MIN TEMP:  29; 6HR MAX TEMP:  48;

LEE`S SUMMIT   SUNNY     51  30  44 W13       29.90F
6HR MIN TEMP:  27; 6HR MAX TEMP:  51;

ST JOSEPH      SUNNY     51  31  46 SW9       29.87F
6HR MIN TEMP:  24; 6HR MAX TEMP:  51;

CHILLICOTHE      N/A     49  33  54 SW7       29.85F
6HR MIN TEMP:  26; 6HR MAX TEMP:  49;

KIRKSVILLE     SUNNY     46  33  60 W8        29.82F
6HR MIN TEMP:  28; 6HR MAX TEMP:  46;


$$
MOZ066>068-077>081-088>096-101>105-241900-
...SOUTHWEST MISSOURI...

CITY           SKY/WX    TMP DP  RH WIND       PRES   REMARKS
SPRINGFIELD    SUNNY     48  32  53 W7        29.97F
6HR MIN TEMP:  30; 6HR MAX TEMP:  48;

JOPLIN         SUNNY     48  33  56 SW9       30.00F
6HR MIN TEMP:  27; 6HR MAX TEMP:  48;


$$
MOZ032>034-039>042-045>050-055>058-069>072-241900-
...CENTRAL MISSOURI...

CITY           SKY/WX    TMP DP  RH WIND       PRES   REMARKS
COLUMBIA       SUNNY     47  33  58 W9        29.88F
6HR MIN TEMP:  29; 6HR MAX TEMP:  47;

JEFFERSON CITY SUNNY     47  31  53 W7        29.90F
6HR MIN TEMP:  27; 6HR MAX TEMP:  47;

ROLLA          SUNNY     46  31  55 W10       29.88F
6HR MIN TEMP:  30; 6HR MAX TEMP:  46;

SEDALIA        SUNNY     48  33  56 SW12      29.91F
6HR MIN TEMP:  30; 6HR MAX TEMP:  48;

WHITEMAN AFB   SUNNY     50  32  51 W9        29.90F
OSAGE BEACH    SUNNY     46  30  53 SW9       29.92F

$$
MOZ051-052-059>065-241900-
...EAST CENTRAL MISSOURI...

CITY           SKY/WX    TMP DP  RH WIND       PRES   REMARKS
ST LOUIS INTL  MOSUNNY   48  31  51 W9        29.86F
6HR MIN TEMP:  31; 6HR MAX TEMP:  48;

SPIRIT OF STL  SUNNY     46  31  55 W10       29.86F
6HR MIN TEMP:  29; 6HR MAX TEMP:  46;

ST CHARLES     SUNNY     44  32  62 W10       29.85F
6HR MIN TEMP:  27; 6HR MAX TEMP:  44;


$$
MOZ072>076-082>087-097>100-106>115-241900-
...SOUTH CENTRAL AND SOUTHEAST MISSOURI...

CITY           SKY/WX    TMP DP  RH WIND       PRES   REMARKS
CAPE GIRARDEAU SUNNY     43  29  57 W8        29.91F
6HR MIN TEMP:  24; 6HR MAX TEMP:  43;

FARMINGTON     SUNNY     50  30  46 MISG      29.91F
6HR MIN TEMP:  34; 6HR MAX TEMP:  50;

POPLAR BLUFF   SUNNY     47  31  53 SW8       29.91F
6HR MIN TEMP:  25; 6HR MAX TEMP:  47;

WEST PLAINS    SUNNY     51  29  42 W9        29.94F
6HR MIN TEMP:  29; 6HR MAX TEMP:  51;


$$


USA.gov is the U.S. government's official web portal to all federal, state and local government web resources and services.